Weather History for Fort Hood, TX

Change the Weather History Date:

Sunday, November 25, 2012

  Actual Average Record
Temperature  
Mean Temperature 60 °F -  
Max Temperature 78 °F 64 °F 78 °F (1998)
Min Temperature 42 °F 44 °F 30 °F (2003)
Degree Days  
Heating Degree Days 5    
Growing Degree Days 10 (Base 50)    
Moisture  
Dew Point 43 °F    
Average Humidity 53    
Maximum Humidity 82    
Minimum Humidity 37    
Precipitation  
Precipitation 0.00 in - - ()
Sea Level Pressure  
Sea Level Pressure 29.99 in    
Wind  
Wind Speed 12 mph (SSE)    
Max Wind Speed 21 mph    
Max Gust Speed 29 mph    
Visibility 7 miles    
Events      
Averages and records for this station are not official NWS values.
T = Trace of Precipitation, MM = Missing Value Source: NWS Daily Summary

Daily Weather History Graph

Daily Weather History Graph

Search for Another Location

Airport:

Trip Planner

Search our weather history database for the weather conditions in past years. The results will help you decide how hot, cold, wet, or windy it might be!

Date:

Astronomy

Nov. 25, 2012 Rise Set
Actual Time 7:07 AM CST 5:29 PM CST
Civil Twilight 6:41 AM CST 5:55 PM CST
Nautical Twilight 6:11 AM CST 6:25 PM CST
Astronomical Twilight 5:42 AM CST 6:54 PM CST
Moon 3:41 PM CST 4:29 AM CST
Length of Visible Light 11h 14m
Length of Day
10h 22m
Waxing Gibbous, 93% of the Moon is Illuminated
Nov 25
Waxing Gibbous
Nov 28
Full
Dec 6
Last Quarter
Dec 13
New
Dec 19
First Quarter

Hourly Weather History & Observations

Time (CST) Temp. Windchill Dew Point Humidity Pressure Visibility Wind Dir Wind Speed Gust Speed Precip Events Conditions
12:55 AM 48.2 °F - 24.8 °F 40% 30.12 in 7.0 mi South 11.5 mph - N/A   Clear
1:55 AM 46.4 °F 40.7 °F 24.8 °F 43% 30.10 in 7.0 mi South 12.7 mph - N/A   Clear
2:55 AM 44.6 °F 39.7 °F 24.8 °F 46% 30.08 in 7.0 mi SSE 9.2 mph - N/A   Clear
3:55 AM 44.6 °F 40.2 °F 26.6 °F 49% 30.06 in 7.0 mi South 8.1 mph - N/A   Clear
4:55 AM 42.8 °F 38.0 °F 26.6 °F 53% 30.05 in 7.0 mi South 8.1 mph - N/A   Clear
5:55 AM 44.6 °F 39.7 °F 28.4 °F 53% 30.04 in 7.0 mi South 9.2 mph - N/A   Clear
6:55 AM 42.8 °F 41.1 °F 26.6 °F 53% 30.05 in 7.0 mi South 3.5 mph - N/A   Clear
7:55 AM 46.4 °F 42.9 °F 30.2 °F 53% 30.06 in 7.0 mi SSE 6.9 mph - N/A   Clear
8:55 AM 55.4 °F - 33.8 °F 44% 30.06 in 7.0 mi SE 9.2 mph - N/A   Clear
9:55 AM 64.4 °F - 37.4 °F 37% 30.06 in 7.0 mi SSE 15.0 mph 20.7 mph N/A   Clear
10:55 AM 69.8 °F - 44.6 °F 40% 30.04 in 7.0 mi SSE 17.3 mph 25.3 mph N/A   Clear
11:55 AM 71.6 °F - 46.4 °F 41% 30.00 in 7.0 mi SSE 17.3 mph 27.6 mph N/A   Clear
12:55 PM 75.2 °F - 50.0 °F 41% 29.95 in 7.0 mi SE 16.1 mph - N/A   Clear
1:55 PM 78.8 °F - 51.8 °F 39% 29.92 in 7.0 mi SSE 16.1 mph 28.8 mph N/A   Clear
2:55 PM 78.8 °F - 53.6 °F 42% 29.91 in 7.0 mi South 15.0 mph 24.2 mph N/A   Clear
3:55 PM 77.0 °F - 53.6 °F 44% 29.90 in 7.0 mi South 20.7 mph 26.5 mph N/A   Clear
4:55 PM 73.4 °F - 53.6 °F 50% 29.90 in 7.0 mi South 16.1 mph 25.3 mph N/A   Clear
5:55 PM 69.8 °F - 53.6 °F 56% 29.91 in 7.0 mi South 11.5 mph - N/A   Clear
6:55 PM 66.2 °F - 53.6 °F 64% 29.92 in 7.0 mi South 10.4 mph - N/A   Clear
7:55 PM 64.4 °F - 53.6 °F 68% 29.94 in 7.0 mi South 11.5 mph - N/A   Clear
8:55 PM 62.6 °F - 57.2 °F 82% 29.94 in 7.0 mi South 9.2 mph - N/A   Clear
9:55 PM 62.6 °F - 57.2 °F 82% 29.94 in 7.0 mi South 11.5 mph - N/A   Clear
10:55 PM 64.4 °F - 57.2 °F 77% 29.94 in 7.0 mi South 13.8 mph - N/A   Clear
11:55 PM 62.6 °F - 57.2 °F 82% 29.93 in 7.0 mi South 12.7 mph - N/A   Clear